Find Hebi-1

NORAD ID: 56154 Int'l Des: 2023-047 Owner: PIESAT Country: CN operational
LEOCIRCULARRETROGRADESSO

リアルタイム位置

3D地球を読み込み中...

Hebi-1について

説明を読み込み中...

次回通過

Passes for default location (London). Set your location on the main map for personalized predictions.

高度履歴

Loading altitude history...

軌道要素

1 56154U 23047B 26105.51169379 .00002559 00000-0 14339-3 0 9996
2 56154 97.5005 293.5592 0001452 108.9037 251.2352 15.14294657168317
Epoch: Apr 15, 2026 • Age: 27 hours

現在のステータス

高度 530.4 km
速度 7.60 km/s
衛星直下点 49.15°N, 150.71°W
打ち上げ日 Mar 30, 2023
運用期間 3 years
タイプ other

技術仕様

分類 Payload
質量 270.00 kg
乾燥質量 270.00 kg
総質量 270.00 kg
長さ 1.00 m
直径 1.00 m
スパン 4.00 m
形状 Box + 2 Pan
製造者 YINHE
バスタイプ Piesat
フェーズステータス In Orbit
所有者/国 PIESAT/CN

Most Searched